Date String (YYYY-MM-DD hh:mm:ss) UTC,Instrument flags,absolute air pressure of the measurement (hPa),sample flow rate (lpm),inlet stack bypass flow (lpm),air temperature of the measurement (°C),ambient temperature measured by the external sensor (°C),aerosol sample conditioner tube jacket temperature (°C),OPC LED temperature (°C),internal box temperature (°C),relative humidity of the measurement (%),span deviation,mass concentration of particles derived from Lorenz-Mie calculation of OPC scattering (μg/m³),mass concentration of particles derived from Lorenz-Mie calculation of OPC scattering (μg/m³),mass concentration of particles derived from Lorenz-Mie calculation of OPC scattering (μg/m³)
DateTimeUTC,F1_M11,P_M11,Q1_M11,Q2_M11,T1_M11,T2_M11,T3_M11,T4_M11,T5_M11,U1_M11,ZSPAN_M11,X0_M11,X2_M11,X1_M11
2023-11-15 14:00:00,SystemResetWarning,0833.8,5.00,000.00,025.3,024.2,000.0,033.7,026.7,8.6,0000.0,0009.48,0004.05,0003.25
2023-11-15 14:01:00,SystemResetWarning,0833.8,5.00,000.00,025.3,024.2,000.0,033.7,026.7,8.6,0000.0,0009.29,0003.98,0003.23
2023-11-15 14:02:00,SystemResetWarning,0833.7,5.00,000.00,025.3,024.2,000.0,033.7,026.7,8.6,0000.0,0009.49,0003.91,0003.21
2023-11-15 14:03:00,SystemResetWarning,0833.8,5.00,000.00,025.3,024.2,000.0,033.7,026.7,8.6,0000.0,0009.47,0003.86,0003.20
2023-11-15 14:04:00,SystemResetWarning,0833.8,5.00,000.00,025.3,024.2,000.0,033.7,026.7,8.6,0000.0,0009.68,0003.83,0003.19
2023-11-15 14:05:00,SystemResetWarning,0833.8,5.00,000.00,025.3,024.2,000.0,033.7,026.7,8.4,0000.0,0009.83,0003.77,0003.17
2023-11-15 14:06:00,SystemResetWarning,0833.8,5.00,000.00,025.3,024.2,000.0,033.7,026.7,8.4,0000.0,0010.11,0003.72,0003.15
2023-11-15 14:07:00,SystemResetWarning,0833.8,5.00,000.00,025.3,024.3,000.0,033.7,026.7,8.2,0000.0,0010.23,0003.68,0003.13
2023-11-15 14:08:00,SystemResetWarning,0833.8,5.00,000.00,025.3,024.3,000.0,033.7,026.7,8.1,0000.0,0010.12,0003.62,0003.11
2023-11-15 14:09:00,SystemResetWarning,0833.8,5.00,000.00,025.3,024.3,000.0,033.7,026.7,8.0,0000.0,0010.55,0003.59,0003.10
2023-11-15 14:10:00,SystemResetWarning,0833.8,5.00,000.00,025.3,024.3,000.0,033.7,026.7,8.0,0000.0,0010.55,0003.60,0003.10
2023-11-15 14:11:00,SystemResetWarning,0833.8,5.00,000.00,025.3,024.3,000.0,033.7,026.7,8.0,0000.0,0011.23,0003.65,0003.12
2023-11-15 14:12:00,SystemResetWarning,0833.8,5.00,000.00,025.3,024.3,000.0,033.7,026.8,7.9,0000.0,0011.72,0003.75,0003.15
2023-11-15 14:13:00,SystemResetWarning,0833.9,5.00,000.00,025.3,024.3,000.0,033.7,026.8,7.9,0000.0,0011.15,0003.82,0003.19
2023-11-15 14:14:00,SystemResetWarning,0833.9,4.99,000.00,025.3,024.3,000.0,033.7,026.8,7.9,0000.0,0011.70,0003.93,0003.24
2023-11-15 14:15:00,SystemResetWarning,0833.9,4.99,000.00,025.3,024.4,000.0,033.7,026.8,7.9,0000.0,0011.95,0004.05,0003.29
2023-11-15 14:16:00,SystemResetWarning,0833.9,5.00,000.00,025.4,024.4,000.0,033.7,026.8,7.9,0000.0,0012.51,0004.12,0003.33
2023-11-15 14:17:00,SystemResetWarning,0833.8,5.00,000.00,025.3,024.3,000.0,033.7,026.8,7.9,0000.0,0012.67,0004.17,0003.37
2023-11-15 14:18:00,SystemResetWarning,0833.8,5.00,000.00,025.3,024.3,000.0,033.7,026.7,8.0,0000.0,0012.59,0004.26,0003.42
2023-11-15 14:19:00,SystemResetWarning,0833.8,5.00,000.00,025.3,024.3,000.0,033.7,026.8,8.1,0000.0,0012.64,0004.34,0003.47
2023-11-15 14:20:00,SystemResetWarning,0833.8,5.00,000.00,025.3,024.3,000.0,033.7,026.7,8.2,0000.0,0012.50,0004.44,0003.52
2023-11-15 14:21:00,SystemResetWarning,0833.8,5.00,000.00,025.4,024.3,000.0,033.7,026.7,8.2,0000.0,0012.87,0004.52,0003.56
2023-11-15 14:22:00,SystemResetWarning,0833.8,5.00,000.00,025.4,024.3,000.0,033.7,026.7,8.1,0000.0,0013.10,0004.54,0003.59
2023-11-15 14:23:00,SystemResetWarning,0833.8,5.00,000.00,025.4,024.4,000.0,033.7,026.8,8.1,0000.0,0013.10,0004.54,0003.62
2023-11-15 14:24:00,SystemResetWarning,0833.8,5.00,000.00,025.4,024.4,000.0,033.7,026.8,8.1,0000.0,0013.40,0004.51,0003.62
2023-11-15 14:25:00,SystemResetWarning,0833.8,5.00,000.00,025.4,024.4,000.0,033.7,026.8,8.1,0000.0,0012.98,0004.46,0003.61
2023-11-15 14:26:00,SystemResetWarning,0833.9,5.00,000.00,025.4,024.4,000.0,033.7,026.8,8.2,0000.0,0012.69,0004.42,0003.59
2023-11-15 14:27:00,SystemResetWarning,0833.8,5.00,000.00,025.4,024.4,000.0,033.7,026.8,8.2,0000.0,0012.45,0004.41,0003.58
2023-11-15 14:28:00,SystemResetWarning,0833.9,5.01,000.00,025.4,024.3,000.0,033.7,026.7,8.2,0000.0,0012.15,0004.38,0003.57
2023-11-15 14:29:00,SystemResetWarning,0833.9,5.01,000.00,025.4,024.3,000.0,033.7,026.8,8.2,0000.0,0012.01,0004.33,0003.55
2023-11-15 14:30:00,SystemResetWarning,0833.9,5.00,000.00,025.4,024.4,000.0,033.7,026.8,8.2,0000.0,0012.15,0004.29,0003.53
2023-11-15 14:31:00,SystemResetWarning,0834.0,5.00,000.00,025.4,024.4,000.0,033.7,026.9,8.2,0000.0,0011.92,0004.25,0003.52
2023-11-15 14:32:00,SystemResetWarning,0833.9,5.00,000.00,025.4,024.4,000.0,033.7,026.8,8.3,0000.0,0011.48,0004.18,0003.50
2023-11-15 14:33:00,SystemResetWarning,0833.9,5.00,000.00,025.4,024.4,000.0,033.7,026.8,8.2,0000.0,0010.72,0004.15,0003.47
2023-11-15 14:34:00,SystemResetWarning,0833.9,4.99,000.00,025.4,024.4,000.0,033.7,026.8,8.2,0000.0,0009.89,0004.09,0003.44
2023-11-15 14:35:00,SystemResetWarning,0834.0,5.00,000.00,025.4,024.4,000.0,033.7,026.8,8.3,0000.0,0009.32,0004.09,0003.43
2023-11-15 14:36:00,SystemResetWarning,0834.0,5.00,000.00,025.4,024.4,000.0,033.7,026.8,8.3,0000.0,0009.40,0004.08,0003.43
2023-11-15 14:37:00,SystemResetWarning,0834.0,5.00,000.00,025.4,024.4,000.0,033.7,026.8,8.3,0000.0,0010.04,0004.07,0003.42
2023-11-15 14:38:00,SystemResetWarning,0834.0,4.99,000.00,025.4,024.4,000.0,033.7,026.8,8.4,0000.0,0009.50,0004.05,0003.40
2023-11-15 14:39:00,SystemResetWarning,0834.0,5.00,000.00,025.4,024.4,000.0,033.7,026.9,8.3,0000.0,0009.09,0004.07,0003.40
2023-11-15 14:40:00,SystemResetWarning,0834.0,5.00,000.00,025.4,024.4,000.0,033.7,026.8,8.3,0000.0,0008.96,0004.09,0003.39
2023-11-15 14:41:00,SystemResetWarning,0834.1,5.00,000.00,025.4,024.5,000.0,033.7,026.9,8.3,0000.0,0008.71,0004.08,0003.37
2023-11-15 14:42:00,SystemResetWarning,0834.1,5.00,000.00,025.4,024.5,000.0,033.7,026.9,8.3,0000.0,0008.72,0004.04,0003.34
2023-11-15 14:43:00,SystemResetWarning,0834.1,5.01,000.00,025.5,024.5,000.0,033.8,026.9,8.5,0000.0,0008.68,0004.01,0003.32
2023-11-15 14:44:00,SystemResetWarning,0834.1,5.00,000.00,025.5,024.5,000.0,033.8,026.9,9.2,0000.0,0008.80,0003.96,0003.29
2023-11-15 14:45:00,SystemResetWarning,0834.1,5.00,000.00,025.5,024.5,000.0,033.8,026.9,9.6,0000.0,0008.68,0003.91,0003.27
2023-11-15 14:46:00,SystemResetWarning,0834.1,5.00,000.00,025.5,024.5,000.0,033.8,026.9,9.6,0000.0,0008.58,0003.89,0003.24
2023-11-15 14:47:00,SystemResetWarning,0834.1,5.00,000.00,025.5,024.5,000.0,033.8,026.9,9.0,0000.0,0008.40,0003.86,0003.21
2023-11-15 14:48:00,SystemResetWarning,0834.1,5.00,000.00,025.5,024.5,000.0,033.8,026.9,8.8,0000.0,0007.49,0003.84,0003.18
2023-11-15 14:49:00,SystemResetWarning,0834.1,5.00,000.00,025.5,024.5,000.0,033.8,027.0,8.9,0000.0,0007.83,0003.81,0003.15
2023-11-15 14:50:00,SystemResetWarning,0834.1,5.00,000.00,025.5,024.5,000.0,033.8,027.0,8.8,0000.0,0008.46,0003.74,0003.11
2023-11-15 14:51:00,SystemResetWarning,0834.1,5.00,000.00,025.5,024.5,000.0,033.8,027.0,8.9,0000.0,0008.67,0003.63,0003.01
2023-11-15 14:52:00,SystemResetWarning,0834.1,5.00,000.00,025.5,024.5,000.0,033.8,027.0,8.4,0000.0,0008.53,0003.52,0002.91
2023-11-15 14:53:00,SystemResetWarning,0834.1,5.00,000.00,025.5,024.6,000.0,033.8,027.0,8.5,0000.0,0008.42,0003.43,0002.84
2023-11-15 14:54:00,SystemResetWarning,0834.1,5.00,000.00,025.5,024.6,000.0,033.8,027.0,8.7,0000.0,0008.44,0003.40,0002.78
2023-11-15 14:55:00,SystemResetWarning,0834.1,5.00,000.00,025.6,024.6,000.0,033.8,027.0,8.6,0000.0,0008.18,0003.34,0002.72
2023-11-15 14:56:00,SystemResetWarning,0834.1,5.00,000.00,025.6,024.6,000.0,033.8,027.0,8.5,0000.0,0008.08,0003.32,0002.67
2023-11-15 14:57:00,SystemResetWarning,0834.1,5.00,000.00,025.6,024.6,000.0,033.8,027.0,8.6,0000.0,0008.03,0003.29,0002.63
2023-11-15 14:58:00,SystemResetWarning,0834.1,5.00,000.00,025.6,024.6,000.0,033.8,027.1,8.4,0000.0,0008.02,0003.27,0002.61
2023-11-15 14:59:00,SystemResetWarning,0834.1,5.00,000.00,025.6,024.6,000.0,033.8,027.1,8.3,0000.0,0008.50,0003.29,0002.58
